Kalamata, Greece

5:42 AM EEST on October 20, 2017 (GMT +0300)
Kalamata Air Base

Weather History for LGKL - January, 2013

Change the Weather History Date:

Sunday, January 27, 2013

  Actual Average Record
Temperature  
Mean Temperature 50 °F -  
Max Temperature 59 °F 60 °F 63 °F (2016)
Min Temperature 41 °F 42 °F 39 °F (2016)
Degree Days  
Heating Degree Days 15    
Moisture  
Dew Point 45 °F    
Average Humidity 87    
Maximum Humidity 100    
Minimum Humidity 51    
Precipitation  
Precipitation 0.00 in 0.14 in - ()
Sea Level Pressure  
Sea Level Pressure 29.82 in    
Wind  
Wind Speed 1 mph ()    
Max Wind Speed 8 mph    
Max Gust Speed -    
Visibility 4.9 miles    
Events Rain    
Averages and records for this station are not official NWS values.
T = Trace of Precipitation, MM = Missing Value Source: Averaged Metar Reports

Daily Weather History Graph

Daily Weather History Graph

Search for Another Location

Airport or City:

Trip Planner

Search our weather history database for the weather conditions in past years. The results will help you decide how hot, cold, wet, or windy it might be!

Date:

Astronomy

Jan. 27, 2013 Rise Set
Actual Time 7:38 AM EET 5:51 PM EET
Civil Twilight 7:10 AM EET 6:19 PM EET
Nautical Twilight 6:39 AM EET 6:50 PM EET
Astronomical Twilight 6:08 AM EET 7:21 PM EET
Moon 6:24 PM EET (1/27) 7:22 AM EET (1/27)
Length of Visible Light 11h 08m
Length of Day
10h 13m
Full, 100% of the Moon is Illuminated
Jan 27
Full
Feb 3
Last Quarter
Feb 10
New
Feb 17
First Quarter
Feb 25
Full

Hourly Weather History & Observations

Time (EET) Temp. Windchill Dew Point Humidity Pressure Visibility Wind Dir Wind Speed Gust Speed Precip Events Conditions
12:50 AM 48.2 °F - 46.4 °F 93% 29.68 in 3.7 mi Calm Calm - N/A   Light Drizzle
1:50 AM 48.2 °F - 46.4 °F 93% 29.71 in 5.0 mi Calm Calm - N/A   Overcast
2:50 AM 48.2 °F - 46.4 °F 93% 29.71 in 5.0 mi Calm Calm - N/A Rain Light Rain
3:50 AM 48.2 °F - 46.4 °F 93% 29.74 in 3.7 mi Calm Calm - N/A Rain Rain
4:50 AM 46.4 °F - 46.4 °F 100% 29.74 in 3.7 mi Calm Calm - N/A Rain Rain
5:20 AM 46.4 °F - 46.4 °F 100% 29.74 in 3.7 mi Calm Calm - N/A Rain Rain
5:50 AM 46.4 °F - 46.4 °F 100% 29.74 in 3.7 mi Calm Calm - N/A Rain Light Rain
6:20 AM 46.4 °F - 46.4 °F 100% 29.74 in 3.7 mi Calm Calm - N/A Rain Light Rain
6:50 AM 46.4 °F - 46.4 °F 100% 29.77 in 5.0 mi Calm Calm - N/A   Light Drizzle
7:20 AM 46.4 °F - 46.4 °F 100% 29.77 in 5.0 mi Calm Calm - N/A   Light Drizzle
7:50 AM 46.4 °F - 46.4 °F 100% 29.77 in 5.0 mi Calm Calm - N/A Rain Light Rain
8:20 AM 46.4 °F - 46.4 °F 100% 29.80 in 3.7 mi Calm Calm - N/A Rain Light Rain
8:50 AM 48.2 °F - 46.4 °F 93% 29.80 in 3.7 mi Calm Calm - N/A Rain Light Rain
9:20 AM 48.2 °F - 46.4 °F 93% 29.83 in 3.7 mi Calm Calm - N/A   Mostly Cloudy
9:50 AM 48.2 °F - 46.4 °F 93% 29.83 in 3.7 mi Calm Calm - N/A Rain Light Rain
10:20 AM 50.0 °F - 48.2 °F 94% 29.83 in 1.2 mi Calm Calm - N/A   Overcast
10:50 AM 50.0 °F - 48.2 °F 94% 29.83 in 1.9 mi Calm Calm - N/A   Overcast
11:20 AM 50.0 °F - 48.2 °F 94% 29.83 in 3.1 mi Calm Calm - N/A   Overcast
11:50 AM 51.8 °F - 46.4 °F 82% 29.83 in 5.0 mi Calm Calm - N/A   Light Drizzle
12:20 PM 51.8 °F - 46.4 °F 82% 29.83 in 6.2 mi North 4.6 mph - N/A   Mostly Cloudy
12:50 PM 53.6 °F - 42.8 °F 67% 29.83 in 6.2 mi Calm Calm - N/A   Mostly Cloudy
1:20 PM 57.2 °F - 44.6 °F 63% 29.83 in 6.2 mi Calm Calm - N/A   Scattered Clouds
1:50 PM 57.2 °F - 42.8 °F 59% 29.83 in 6.2 mi Calm Calm - N/A   Scattered Clouds
2:20 PM 59.0 °F - 41.0 °F 51% 29.83 in 6.2 mi Calm Calm - N/A   Scattered Clouds
2:50 PM 57.2 °F - 41.0 °F 55% 29.83 in 6.2 mi Calm Calm - N/A   Scattered Clouds
3:20 PM 55.4 °F - 42.8 °F 63% 29.83 in 6.2 mi Calm Calm - N/A   Mostly Cloudy
3:50 PM 53.6 °F - 44.6 °F 72% 29.83 in 6.2 mi WSW 6.9 mph - N/A   Mostly Cloudy
4:20 PM 51.8 °F - 46.4 °F 82% 29.86 in 6.2 mi WNW 8.1 mph - N/A Rain Light Rain
4:50 PM 51.8 °F - 44.6 °F 76% 29.86 in 6.2 mi NNW 5.8 mph - N/A Rain Light Rain
5:20 PM 51.8 °F - 46.4 °F 82% 29.86 in 6.2 mi Calm Calm - N/A   Scattered Clouds
5:50 PM 50.0 °F - 46.4 °F 87% 29.86 in 6.2 mi Calm Calm - N/A   Scattered Clouds
6:20 PM 48.2 °F - 44.6 °F 87% 29.86 in 6.2 mi Calm Calm - N/A   Scattered Clouds
6:50 PM 48.2 °F - 44.6 °F 87% 29.86 in 6.2 mi Calm Calm - N/A   Scattered Clouds
7:20 PM 46.4 °F 44.3 °F 44.6 °F 93% 29.89 in 6.2 mi NW 4.6 mph - N/A   Scattered Clouds
7:50 PM 46.4 °F 43.5 °F 42.8 °F 87% 29.89 in 6.2 mi NNW 5.8 mph - N/A   Partly Cloudy
8:50 PM 42.8 °F - 41.0 °F 93% 29.89 in - Calm Calm - N/A   Clear
9:50 PM 42.8 °F 40.1 °F 41.0 °F 93% 29.92 in - NW 4.6 mph - N/A   Clear
10:50 PM 41.0 °F - 39.2 °F 93% 29.92 in - Calm Calm - N/A   Clear
11:50 PM 41.0 °F - 39.2 °F 93% 29.95 in - Calm Calm - N/A   Clear